Regional Weather Roundup
Issued by NWS

Home | Current Version | Previous Version | Text Only | Print | Product List | Glossary Off
Versions: 1 2 3 4 5 6 7 8 9 10 11 12 13 14 15 16 17 18 19 20 21 22 23 24 25 26 27 28 29 30 31 32 33 34 35 36 37 38 39 40 41 42 43 44 45 46 47 48 49 50

000
ASUS43 KMPX 260401
RWRMN
WEATHER ROUNDUP FOR MINNESOTA
NATIONAL WEATHER SERVICE TWIN CITIES/CHANHASSEN MN
1100 PM CDT SAT APR 25 2015


NOTE: "FAIR" INDICATES FEW OR NO CLOUDS BELOW 12,000 FEET WITH NO
SIGNIFICANT WEATHER AND/OR OBSTRUCTIONS TO VISIBILITY. N/A MEANS
CURRENT SKY AND/OR WEATHER CONDITIONS ARE NOT AVAILABLE.

MNZ060>063-068>070-260500-
   Twin Cities Metro

CITY           SKY/WX    TMP DP  RH WIND       PRES   REMARKS
TWIN CITIES    CLEAR     50  27  40 N9        29.96R
ST PAUL        CLEAR     50  26  39 NE10      29.97R
CRYSTAL        CLEAR     49  27  42 N9        29.96R
BLAINE         CLEAR     46  28  49 N7        29.97R
LAKEVILLE      CLEAR     46  30  53 N8        29.94R
EDEN PRAIRIE   CLEAR     50  29  44 N8        29.94R
SOUTH ST PAUL  CLEAR     50  28  42 N5        29.95R
LAKE ELMO      FAIR      48  27  43 NE9G17    29.97R
$$
MNZ001>005-007-008-013>017-022>024-027-028-260500-
   Northwest Minnesota

CITY           SKY/WX    TMP DP  RH WIND       PRES   REMARKS
BEMIDJI        CLEAR     38  30  73 CALM      30.00R
HALLOCK        CLEAR     48  30  49 E13       29.98S
ROSEAU         CLEAR     45  32  61 E8        30.02R
WARROAD        CLEAR     39  34  81 E6        30.03R
THIEF RVR FALL CLEAR     48  30  49 E8        30.00R
CROOKSTON      CLEAR     48  30  49 SE10      29.99R
FOSSTON        CLEAR     39  25  56 CALM      30.00S
DETROIT LAKES  CLEAR     48  30  49 SE3       30.00S
MOORHEAD       CLEAR     46  30  53 E5        29.99R
PARK RAPIDS    CLEAR     43  29  57 CALM      29.99R
MAHNOMEN       FAIR      46  29  52 E5        29.99R
$$
MNZ006-009>011-018-025>026-260500-
   North Central Minnesota

CITY           SKY/WX    TMP DP  RH WIND       PRES   REMARKS
BAUDETTE       CLEAR     40  33  76 E3        30.02R
FLAG ISLAND    CLEAR     48  28  46 NE5       30.02S
INTL FALLS     CLEAR     35  25  66 E5        30.03R WCI  31
WASKISH        CLEAR     43  30  61 CALM      30.02R
BIG FORK       CLEAR     45  19  36 S6        30.03R
LONGVILLE      CLEAR     36  27  69 CALM      30.02R
GRAND RAPIDS   CLEAR     39  10  30 SE6       30.04R
CRANE LAKE     CLEAR     28  25  86 CALM      30.05R
ORR            CLEAR     39  18  41 SE5       30.02R
COOK           CLEAR     37  16  41 CALM      30.04R
WALKER         FAIR      40  29  65 CALM      30.00R
$$
MNZ012-019>021-037-260500-
   Northeast Minnesota

CITY           SKY/WX    TMP DP  RH WIND       PRES   REMARKS
DULUTH         CLEAR     34  16  47 E7        30.03S WCI  28
ELY            CLEAR     30  18  59 CALM      30.04S
HIBBING        CLEAR     29  16  58 CALM      30.04R
EVELETH        CLEAR     32  18  55 CALM      30.05S
DULUTH HARBOR  CLEAR     37  30  75 NE7       30.07R
TWO HARBORS    CLEAR     36  19  51 N5        30.03S
SILVER BAY     CLEAR     28  18  64 CALM      30.04S
GRAND MARAIS     N/A     30  19  63 NW3       30.07R
G MARAIS ARPRT CLEAR     27  18  69 N6        30.04S WCI  20
$$
MNZ029>031-032-039>041-046>048-054>057-064-260500-
   West Central Minnesota

CITY           SKY/WX    TMP DP  RH WIND       PRES   REMARKS
FERGUS FALLS   CLEAR     48  28  46 E6        29.99S
WHEATON        CLEAR     41  37  87 E3        29.98S
MORRIS         CLEAR     43  36  75 E9        29.96R
ALEXANDRIA     CLEAR     46  30  53 E12       29.99R
ELBOW LAKE     FAIR      47  34  61 E7        29.97S
WADENA         CLEAR     45  28  53 E3        29.99R
GLENWOOD       CLEAR     43  34  70 NE9       29.98R
APPLETON       CLEAR     45  37  76 NE6       29.96R
BENSON         CLEAR     45  36  70 E5        29.97R
ORTONVILLE     MOCLDY    46  39  76 NE7       29.95S
MADISON        MOCLDY    45  37  76 S3        29.95R
WILLMAR        FAIR      48  36  61 E9        29.98R
$$
MNZ033>034-036-042>043-049>051-058-059-260500-
   Central Minnesota

CITY           SKY/WX    TMP DP  RH WIND       PRES   REMARKS
ST CLOUD       CLEAR     43  24  47 NE7       29.98R
SAUK CENTRE    FAIR      45  29  55 NE9       29.98R
PAYNESVILLE    CLEAR     43  31  63 N8        29.98R
AITKIN         CLEAR     37   7  28 NE3       30.01S
PINE RIVER     CLEAR     39  25  56 E7        30.05R
BRAINERD       CLEAR     42   6  22 E3        30.01R
STAPLES        CLEAR     45  21  39 CALM      30.00R
LONG PRAIRIE   FAIR      43  28  56 NE8       29.99R
LITTLE FALLS   CLEAR     43  18  36 NE7       29.99S
LITCHFIELD     CLEAR     46  34  61 NE7       29.97R
BUFFALO        CLEAR     46  26  47 N8        29.98R
MAPLE LAKE     CLEAR     46  30  54 NE9       29.99R
$$
MNZ037-044-045-052-053-260500-
   East Central Minnesota

CITY           SKY/WX    TMP DP  RH WIND       PRES   REMARKS
PRINCETON      CLEAR     43  21  42 N8        30.00R
MORA           CLEAR     36  12  38 NE5       30.03R
CAMBRIDGE      CLEAR     43  25  49 N8        29.98R
RUSH CITY      PTCLDY    38  20  49 N6        30.01R
MOOSE LAKE     CLEAR     34  19  55 CALM      30.02R
HINCKLEY       FAIR      36  21  55 NE10      30.01S
CLOQUET        CLEAR     34  14  44 E5        30.03S WCI  30
MCGREGOR       CLEAR     36  12  38 CALM      30.03S
$$
MNZ071>073-080-081-089-090-097-098-260500-
   Southwest Minnesota

CITY           SKY/WX    TMP DP  RH WIND       PRES   REMARKS
MONTEVIDEO     CLEAR     41  36  81 S6        29.97R
GRANITE FALLS  PTCLDY    44  33  65 CALM      29.97R
CANBY          MOCLDY    49  41  73 NE3       29.96R
MARSHALL       PTCLDY    46  36  66 CALM      29.95R
REDWOOD FALLS  PTCLDY    47  36  65 SW5       29.95R
OLIVIA         CLEAR     46  30  53 NE6       29.96R
PIPESTONE      FAIR      45  37  76 SE2       29.93S
WINDOM         PTCLDY    39  34  81 CALM      29.94S
WORTHINGTON    PTCLDY    43  34  70 E3        29.95R
JACKSON        PTCLDY    43  36  75 CALM      29.95R
TRACY          PTCLDY    46  37  70 S5        29.95R
SLAYTON        PTCLDY    42  36  78 CALM      29.95R
$$
MNZ065>067-074>077-082>085-091>093-260500-
   South Central Minnesota

CITY           SKY/WX    TMP DP  RH WIND       PRES   REMARKS
MANKATO        CLEAR     45  34  65 CALM      29.94S
NEW ULM        CLEAR     41  34  75 W3        29.94S
ST JAMES       CLEAR     43  36  75 CALM      29.95S
FAIRMONT       PTCLDY    39  34  81 CALM      29.93S
GLENCOE        CLEAR     49  34  57 N3        29.95S
FARIBAULT      CLEAR     39  30  70 CALM      29.93S
OWATONNA       CLEAR     36  30  80 CALM      29.93S
WASECA         CLEAR     39  36  87 NW3       29.94S
ALBERT LEA     CLEAR     41  37  87 CALM      29.92R
$$
MNZ078>079-086>088-094>096-260500-
   Southeast Minnesota

CITY           SKY/WX    TMP DP  RH WIND       PRES   REMARKS
ROCHESTER      CLEAR     47  24  40 E5        29.93R
RED WING       CLEAR     46  27  46 CALM      29.93R
STANTON        CLEAR     39  30  72 CALM      29.92S
DODGE CENTER   PTCLDY    45  34  65 N3        29.92S
WINONA         CLEAR     41  34  75 CALM      29.94R
AUSTIN         CLEAR     39  36  87 CALM      29.92R
PRESTON        CLEAR     46  30  55 CALM      29.92R
$$
ABBREVIATIONS USED IN REMARKS
   TC - TEMPERATURES IN CELSIUS
  WCI - WIND CHILL INDEX
   HX - HEAT INDEX
  VSB - VISIBILITY
$$


USA.gov is the U.S. government's official web portal to all federal, state and local government web resources and services.